Simultaneous Nadir Overpasses (SNOs) Predictions

Prediction of SNOs between GOES-15 and NOAA-20 Satellite Orbit:

Table of predicted SNOs for the next 14.0 days since TLE Epoch: 11/19/2022
Index Date Time (GOES-15) GOES-15 Lat,Lon NOAA-20 Lat,Lon Distance(km) Time Diff (sec)
1 11/19/2022 22:08:16 -0.06,-128.18 -0.73,-131.09 331.13 80
2 11/20/2022 21:52:11 -0.08,-128.17 0.28,-126.55 183.97 80
3 11/22/2022 10:11:18 0.06,-128.21 0.87,-131.82 412.31 80
4 11/23/2022 09:55:12 0.07,-128.18 -0.14,-127.29 102.06 80
5 11/25/2022 21:55:41 -0.06,-128.04 -0.09,-128.04 2.71 80
6 11/28/2022 09:58:43 0.05,-128.03 0.22,-128.78 84.84 80
7 11/29/2022 09:42:38 0.06,-128.00 -0.79,-124.24 428.54 80
8 11/30/2022 22:01:52 -0.04,-127.88 -0.43,-129.53 189.11 80
9 12/01/2022 21:45:46 -0.04,-127.84 0.59,-125.00 324.52 80
